Location: Praha
(50.0830°N, 14.4670°E)
Time: 12:31:08
(UTC+02:00)

ISS - Pass Details

Date: 10 July 2019
Orbit: 409 x 418 km, 51.6° (Epoch: 21 July)

Event Time Altitude Azimuth Distance (km) Brightness Sun altitude
Exits shadow 01:41:56 29° 125° (SE) 781 -2.7 -17.2°
Drops below altitude 10° 01:44:20 10° 83° (E) 1,480 -0.8 -17.2°
Sets 01:46:32 0° 73° (ENE) 2,343 0.4 -17.1°
